Simultaneous Nadir Overpasses (SNOs) Predictions

Prediction of SNOs between LANDSAT-8 and METOP-A Satellite Orbit:

Table of predicted SNOs for the next 14.0 days since TLE Epoch: 5/6/2014
Index Date (LANDSAT-8) Time (LANDSAT-8) Lat,Lon (LANDSAT-8) SZA (LANDSAT-8 ) Date (METOP-A) Time (METOP-A) Lat,Lon (METOP-A) SZA (METOP-A ) Distance(km) Time Diff (sec)
1 05/08/2014 18:13:50 -81.04, 124.40 114.14 05/08/2014 18:13:25 -81.04, 124.51 114.14 2.03 25
2 05/08/2014 19:03:15 81.07, -67.56 65.91 05/08/2014 19:04:04 81.07, -67.46 65.95 1.71 49
3 05/11/2014 13:48:01 -81.05,-169.05 114.86 05/11/2014 13:47:47 -81.05,-168.88 114.85 3.05 14
4 05/11/2014 14:37:26 81.07, -1.02 65.20 05/11/2014 14:38:26 81.07, -0.85 65.24 2.97 60
5 05/14/2014 09:22:14 -81.04,-102.74 115.57 05/14/2014 09:22:11 -81.04,-102.68 115.57 1.13 3
6
